OPS 7202

operational
NORAD ID: 2920 Int'l Des: 1967-080 Owner: SAMSO Country: US
LEOCIRCULARRETROGRADESSO

About OPS 7202

Description loading...

Live Position

Loading 3D Globe...

Upcoming Passes

Altitude History

Altitude vs Time

uPlot chart will show altitude changes over time

Two-Line Element Set

1 2920U 67080A 26061.16733017 .00000083 00000-0 64225-4 0 9991
2 2920 98.5997 274.9818 0037093 305.1819 54.5883 14.15287970 17577
Epoch: Mar 2, 2026 • Age: 26 hours

Current Status

Altitude 877.4 km
Velocity 7.41 km/s
Sub-Earth Point 81.44°N, 14.28°W
Type other

Large Constellations

Loading constellations...